Flag for U.S.A. Weather past 2 weeks in Jackson, Mississippi, U.S.A.

Now
69 °F

Cloudy.


Feels Like: 69 °F
Forecast: 51 / 78 °F
Wind: 3 mph from South

Location: Hawkins Field

Current Time: Mar 3, 2015 at 7:01:36 PM

Latest Report: Mar 3, 2015 at 5:53 PM


Visibility: 7 mi

Pressure: 29.93 "Hg

Humidity: 93%

Dew point: 67 °F

Location of JacksonLocation

Historic Weather in Jackson — Graph

°F

Jackson temperature yesterday

Maximum temperature yesterday: 57 °F (at 12:03 AM)
Minimum temperature yesterday: 48 °F (at 7:53 AM)
Average temperature yesterday: 51 °F

Past Weeks' High & Low Weather Summary

 TemperatureHumidityPressure
High75 °F (Mar 3, 2:53 PM)100% (Mar 2, 4:53 AM)30.50 "Hg (Mar 2, 4:53 AM)
Low24 °F (Feb 17, 7:53 AM)23% (Feb 19, 3:53 PM)29.75 "Hg (Feb 25, 3:53 PM)
Average42 °F76%30.20 "Hg
* Reported Feb 16 5:00 PM — Mar 3 5:53 PM, Jackson, Weather by CustomWeather, © 2015

Note: Actual official high and low records may vary slightly from our data, if they occured in-between our weather recording intervals... More about our weather records

Advertising

Jackson weather history for previous 24 hours

 ConditionsComfort  
Time TempWeatherWind HumidityBarometerVisibility
5:53 PM
Tue, Mar 3
69 °FCloudy.3 mph93%29.93 "Hg7 mi
4:53 PM69 °FMostly cloudy.8 mph93%29.94 "Hg9 mi
4:03 PM69 °FLight rain. Mostly cloudy.9 mph93%29.98 "Hg7 mi
3:53 PM69 °FLight rain. Fog.12 mph93%29.96 "Hg2 mi
2:53 PM75 °FCloudy.8 mph74%29.96 "Hg10 mi
1:53 PM73 °FMore clouds than sun.10 mph76%29.98 "Hg10 mi
1:02 PM73 °FMostly cloudy.10 mph76%30.04 "Hg10 mi
12:53 PM73 °FMostly cloudy.13 mph76%30.03 "Hg10 mi
11:53 AM72 °FMostly cloudy.16 mph78%30.06 "Hg10 mi
10:53 AM70 °FPartly sunny.8 mph87%30.08 "Hg10 mi
9:53 AM62 °FFog.6 mph96%30.09 "Hg3 mi
9:00 AM60 °FFog.6 mph96%30.11 "Hg2 mi
7:53 AM55 °FFog.5 mph100%30.10 "Hg0 mi
6:53 AM54 °FFog.3 mph97%30.11 "Hg0 mi
5:53 AM53 °FFog.No wind100%30.11 "Hg1 mi
5:01 AM54 °FFog.No wind97%30.12 "Hg1 mi
3:53 AM53 °FFog.No wind96%30.10 "Hg0 mi
2:53 AM52 °FFog.No wind97%30.11 "Hg1 mi
1:53 AM51 °FFog.No wind96%30.13 "Hg1 mi
1:01 AM51 °FFog.No wind96%30.17 "Hg1 mi
11:53 PM
Mon, Mar 2
52 °FFog.No wind97%30.17 "Hg1 mi
10:53 PM52 °FFog.No wind97%30.19 "Hg1 mi
9:53 PM51 °FFog.No wind96%30.21 "Hg1 mi
8:53 PM51 °FFog.3 mph96%30.22 "Hg1 mi
7:53 PM51 °FFog.No wind96%30.23 "Hg1 mi
Weather by CustomWeather, © 2015

See weather overviewHow to use our weather pages